Погода в Новомихайловке

Россия / Орловская область     53°07′31″N   37°22′29″E
темп.,
°C
ветер,
м/с
пор.,
м/с
влажн.,
%
обл.,
%
осадки,
мм/ч
давл.,
гПа
погр.,
м
15 апреля, чт
чт1500:00+12юв2252100 0.0 101520
03:00+11в2260100 0.0 101414
06:00+10юв3366100 0.0 101558
09:00+12в3867100 0.1 1014272
12:00+16вюв4549100 0.0 10141076
15:00+17вюв694599 0.0 10131923
18:00+15ю486183 0.6 1013534
21:00+12в3779100 1.4 1014165
16 апреля, пт
пт1600:00+10юв338081 0.1 101438
03:00+9юв337985 0.1 101528
06:00+9вюв5109099 0.1 1016306
09:00+11вюв3674100 0.1 1016416
12:00+14вюв566194 0.3 10171225
15:00+15в5759100 2.2 10161265
18:00+11вюв2589100 4.5 1017212
21:00+11вюв378112 5.1 1017152
17 апреля, сб
сб1700:00+9всв3689100 0.1 1018128
03:00+9всв3695100 1.3 1018143
06:00+8св4798100 0.1 1019252
09:00+9всв5890100 0.8 1020397
12:00+11св5783100 0.0 1020712
15:00+14всв71267100 0.4 10181346
18:00+11вюв81188100 5.5 10191031
21:00+10св5109199 12.4 1021480
18 апреля, вс
вс1800:00+9св6138169 0.0 1021486
03:00+7св7137726 0.0 1022424
06:00+5св6127865 0.0 1024356
09:00+8всв710675 0.0 1024496
12:00+11всв79543 0.0 10251057
15:00+13всв78445 0.0 10251470
18:00+12всв58500 0.0 10261024
21:00+8св410660 0.0 1027243
19 апреля, пн
пн1900:00+6всв410690 0.0 1028245
03:00+5всв38771 0.0 1029153
06:00+4всв48825 0.0 1030161
09:00+8в58695 0.0 1030515
12:00+11в675797 0.0 10301650
15:00+11в5756100 0.1 10301655
18:00+11в5856100 0.0 1030611
21:00+7в512575 0.0 1031378